Location: Unspecified
(47.5840°N, 122.3000°W)
Time: 06:47:01
(UTC+00:00)

Cosmos 2333 Rocket - Visible Passes

Search period start: 11 March 2026 00:00
Search period end: 21 March 2026 00:00
Orbit: 840 x 862 km, 70.8° (Epoch: 10 March)

Date Brightness Start Highest point End Pass type
(mag) Time Alt. Az. Time Alt. Az. Time Alt. Az.
11 Mar 4.9 09:11:17 13° NE 09:11:17 13° NE 09:11:52 10° NE visible
11 Mar 3.9 10:53:16 25° N 10:53:16 25° N 10:56:07 10° NNE visible
11 Mar 4.4 12:36:08 10° NW 12:37:01 10° NNW 12:37:55 10° NNW visible
12 Mar 5.0 08:59:12 12° NE 08:59:12 12° NE 08:59:38 10° NE visible
12 Mar 4.0 10:41:12 24° N 10:41:12 24° N 10:43:52 10° NNE visible
12 Mar 4.5 12:23:54 10° NW 12:24:47 10° NNW 12:25:39 10° NNW visible
13 Mar 5.0 08:47:07 11° NE 08:47:07 11° NE 08:47:23 10° NE visible
13 Mar 4.1 10:29:07 23° N 10:29:07 23° N 10:31:37 10° NNE visible
13 Mar 4.5 12:11:40 10° NW 12:12:32 10° NNW 12:13:24 10° NNW visible
14 Mar 5.0 08:35:01 11° NE 08:35:01 11° NE 08:35:08 10° NE visible
14 Mar 4.2 10:17:00 22° N 10:17:00 22° N 10:19:23 10° NNE visible
14 Mar 4.5 11:59:27 10° NW 12:00:17 10° NNW 12:01:08 10° NNW visible
15 Mar 5.0 08:22:52 10° NE 08:22:52 10° NE 08:22:53 10° NE visible
15 Mar 4.3 10:04:52 22° N 10:04:52 22° N 10:07:07 10° NNE visible
15 Mar 4.5 11:47:13 10° NW 11:48:02 10° NNW 11:48:52 10° NNW visible
16 Mar 4.3 09:52:43 21° N 09:52:43 21° N 09:54:52 10° NNE visible
16 Mar 4.6 11:34:59 10° NW 11:35:48 10° NNW 11:36:37 10° NNW visible
17 Mar 4.4 09:40:32 21° N 09:40:32 21° N 09:42:38 10° NNE visible
17 Mar 4.6 11:22:46 10° NW 11:23:33 10° NNW 11:24:22 10° NNW visible
18 Mar 4.4 09:28:21 20° N 09:28:21 20° N 09:30:23 10° NNE visible
18 Mar 4.6 11:10:31 10° NW 11:11:19 10° NNW 11:12:05 10° NNW visible
19 Mar 4.4 09:16:08 20° N 09:16:08 20° N 09:18:08 10° NNE visible
19 Mar 4.7 10:58:18 10° NW 10:59:03 10° NNW 10:59:50 10° NNW visible
20 Mar 4.4 09:03:53 20° N 09:03:53 20° N 09:05:53 10° NNE visible
20 Mar 4.7 10:46:04 10° NW 10:46:49 10° NNW 10:47:34 10° NNW visible
